Weather Roundup
Issued by NWS Corpus Christi, TX

Home | Current Version | Previous Version | Text Only | Print | Product List | Glossary On
Versions: 1 2 3 4 5 6 7 8 9 10 11 12 13 14 15 16 17 18 19 20 21 22 23 24 25 26 27 28 29 30 31 32 33 34 35 36 37 38 39 40 41 42 43 44 45 46 47 48 49 50
000
ASUS44 KCRP 060510
HRRCRP

SOUTH TEXAS REGIONAL WEATHER ROUNDUP
NATIONAL WEATHER SERVICE CORPUS CHRISTI TX
1200 AM CDT MON JUL 06 2015


TXZ229>244-060600-
...CORPUS CHRISTI AREA OBSERVATIONS...

CITY           SKY/WX    TMP DP  RH WIND       PRES   REMARKS
CORPUS CHRISTI MOCLDY    82  77  84 S15G24    30.01R HX  90
NAS CORPUS CHR MOCLDY    81  79  94 S14G22    30.01S HX  90
ROCKPORT       LGT RAIN  83  78  85 SE14G22   30.01F HX  93
KINGSVILLE NAS MOCLDY    81  80  97 SE16      30.00S HX  91
ALICE          CLOUDY    81  78  91 SE10      30.00R
FALFURRIAS     CLEAR     80  76  89 SE10      30.00R
$$

...VICTORIA AREA OBSERVATIONS...

CITY           SKY/WX    TMP DP  RH WIND       PRES   REMARKS
VICTORIA       MOCLDY    79  78  97 SE8       30.04S
BEEVILLE       FAIR      79  79 100 SE13      30.02R
PLEASANTON     PTCLDY    79  74  85 SE6       30.01R
SAN ANTONIO    CLOUDY    81  74  79 SE20      30.02R
$$

...LAREDO AREA OBSERVATIONS...

CITY           SKY/WX    TMP DP  RH WIND       PRES   REMARKS
LAREDO         CLEAR     84  73  69 SE18      29.98R HX  90
COTULLA        LGT RAIN  83  73  72 SE15G22   29.97R
DEL RIO        MOCLDY    84  70  62 E12       29.93R
MCALLEN        CLEAR     83  76  79 SE17      30.01R HX  91
HEBBRONVILLE     N/A     79  74  84 SE12G18   30.01S
$$

...OTHER TEXAS OBSERVATIONS...

CITY           SKY/WX    TMP DP  RH WIND       PRES   REMARKS
BROWNSVILLE    CLEAR     81  78  91 SE13      30.03R
HOUSTON        MOCLDY    82  76  81 S7        30.07R
COL. STATION   CLEAR     80  74  81 S13       30.04S
AUSTIN         PTCLDY    79  75  87 S12       30.02S
WACO           PTCLDY    81  72  74 S16G25    30.01R
FORT WORTH     PTCLDY    84  71  65 S13       29.97S
WICHITA FALLS  CLEAR     82  69  64 S17       29.93S
LUBBOCK        PTCLDY    80  65  59 S15       29.98R
EL PASO        MOCLDY    85  56  37 W16G23    30.04R
$$

...MARINE OBSERVATIONS...

STATION/POSITION TIME  SKY/WX   TEMP    WIND        PRES    VSBY  WAVE   SWELL
                                AIR SEA DIR/SP/G                  HT/PER HT/PER
                 (UTC)          (F)     (DEG/KT/KT) (MB)    (MI)  (FT/S) (FT/S)
PORT ARANSAS     0400            82 83  140/ 15/ 17 1017.2R
BUOY 90 E PORT A NOT AVBL
BUOY 45 SE BAFFI 0450            83 83  160/ 17/ 21 1016.2S         4/ 6   2/ 9
BUOY 200 E PT IS 0450            84 84  130/ 14/ 16 1018.7R         3/ 6   2/ 6
BUOY 15 E GALVES 0450            85 85  160/ 16/ 17 1017.5F         3/ 6
$$



USA.gov is the U.S. government's official web portal to all federal, state and local government web resources and services.